Regional Weather Roundup
Issued by NWS Charleston, SC

Current Version | Previous Version | Graphics & Text | Print | Product List | Glossary On
Versions: 1 2 3 4 5 6 7 8 9 10 11 12 13 14 15 16 17 18 19 20 21 22 23 24 25 26 27 28 29 30 31 32 33 34 35 36 37 38 39 40 41 42 43 44 45 46 47 48 49 50
000 ASUS42 KCHS 031013 RWRCHS REGIONAL WEATHER ROUNDUP NATIONAL WEATHER SERVICE CHARLESTON SC 600 AM EDT TUE MAY 03 2016 NOTE: "FAIR" INDICATES FEW OR NO CLOUDS BELOW 12,000 FEET WITH NO SIGNIFICANT WEATHER AND/OR OBSTRUCTIONS TO VISIBILITY. NOT ALL STATIONS ARE QUALITY CONTROLLED. USE DATA WITH CAUTION... ESPECIALLY DEWPOINT OBSERVATIONS. SCZ027-030-031-034>040-042>050-031100- ...SOUTHEAST SOUTH CAROLINA... CITY SKY/WX TMP DP RH WIND PRES REMARKS N CHARLESTON CLOUDY 75 71 87 SW12 29.86F WATERFRONT PRK N/A 75 73 93 S9 29.86S MOUNT PLEASANT PTSUNNY 73 72 94 S10 29.87F FOG JOHNS ISLAND CLOUDY 75 73 94 SW10 29.88S PINOPOLIS N/A 73 72 94 VRB3 29.80R MONCKS CORNER CLOUDY 68 66 94 S3 29.86F SUMMERVILLE FAIR 72 72 100 S5 29.87S BEAUFORT MCAS MOCLDY 74 72 93 VRB3 29.87S BEAUFORT ARPT PTSUNNY 73 72 94 SW6 29.87S HILTON HEAD IS NOT AVBL WALTERBORO PTSUNNY 73 73 100 SW7 29.87F ALLENDALE CLOUDY 72 70 94 CALM 29.86S FOG ...SOUTHERN MIDLANDS AND PEE DEE... CITY SKY/WX TMP DP RH WIND PRES REMARKS GEORGETOWN FAIR 70 64 83 S7 29.87F KINGSTREE CLOUDY 68 64 88 W7 29.86S ORANGEBURG N/A 70 68 93 CALM 29.86F BARNWELL PTSUNNY 72 72 100 S3 29.87F AIKEN PTSUNNY 64 63 94 CALM 29.90F MANNING CLOUDY 68 66 94 NW3 29.87S COLUMBIA LGT RAIN 68 65 90 CALM 29.85F SUMTER LGT RAIN 66 63 88 W6 29.84S FLORENCE CLOUDY 66 63 90 CALM 29.86S MYRTLE BEACH NOT AVBL N MYRTLE BEACH CLOUDY 73 68 84 SW17G30 29.85S $$ GAZ063-065-086>088-099>101-113>116-118-119-134>141-150-031100- ...SOUTHEAST GEORGIA... CITY SKY/WX TMP DP RH WIND PRES REMARKS SAVANNAH ARPT MOCLDY 72 69 90 SW8 29.89R HUNTER AAF PTCLDY 73 73 100 SW7 29.86S FORT STEWART CLOUDY 72 68 88 CALM 29.88R STATESBORO LGT RAIN 73 73 100 CALM 29.87F SYLVANIA CLOUDY 71 71 100 CALM 29.87F FOG CLAXTON FAIR 70 70 100 CALM 29.88F ...CSRA...CENTRAL AND FAR SOUTHEAST GEORGIA... CITY SKY/WX TMP DP RH WIND PRES REMARKS THOMSON CLOUDY 69 69 100 CALM 29.91S AUGUSTA-BUSH FOG 66 66 100 CALM 29.86S VSB 3/4 AUGUSTA-DANIEL CLOUDY 69 66 90 CALM 29.87S SWAINSBORO FAIR 68 68 100 CALM 29.89S VIDALIA CLOUDY 70 68 94 SW5 29.88F EASTMAN FAIR N/A N/A N/A CALM 29.91F HAZLEHURST FAIR 72 72 100 SW3 29.89S ALMA CLOUDY 69 68 96 SW3 29.90S WAYCROSS PTCLDY 68 68 100 SW3 29.90F JESUP FAIR 72 70 94 CALM 29.90S BAXLEY MOCLDY 72 72 100 SW3 29.89S BRUNSWICK CLOUDY 75 70 83 W8 29.91S SAINT SIMONS CLOUDY 72 70 93 SW7 29.90R $$ SCZ027-028-034-036>038-045-046-048>050-GAZ119-141-031100- ...LAKE AND SUPPLEMENTAL COASTAL OBSERVATIONS... STATION/POSITION TIME TEMP WIND PRES WAVE SWELL AIR SEA DIR/SP/G HT/PER HT/PER/DIR (UTC) (F) (DEG/KT/KT) (MB) (FT/S) (FT/S/D) WINYAH BAY 0845 74 210/ 14 1011.0 LAKE MURRAY 0900 68 250/ 5/ 6 1011.2S ACE BASIN NERRS 0845 75 CALM 1012.0 FORT PULASKI 0900 74 74 210/ 7/ 11 1012.2R SAPELO ISLAND 0900 74 230/ 9 1012.0S $$ ANZ835-935-AMZ111-154-330-350-352-354-370-450-454-472-031100- ...C-MAN AND BUOY OBSERVATIONS... STATION/POSITION TIME TEMP WIND PRES WAVE SWELL AIR SEA DIR/SP/G HT/PER HT/PER/DIR (UTC) (F) (DEG/KT/KT) (MB) (FT/S) (FT/S/D) BUOY 41004 0950 74 75 180/ 14/ 16 1011.3F 5/ 5 2/11 BUOY 41008 NOT AVBL FOLLY BEACH CMAN 0900 74 180/ 8/ 9 1012.0F CAPERS NEARSHORE 0908 72 73 160/ 10/ 14 1011.8F FRIPP NEARSHORE 0908 75 73 210/ 12/ 16 1010.8F STATION/POSITION TIME TEMP WIND PRES WAVE SWELL AIR SEA DIR/SP/G HT/PER HT/PER/DIR (UTC) (F) (DEG/KT/KT) (MB) (FT/S) (FT/S/D) 5E ST. MARYS GA 0921 73 N/A 3/ 5 FRYING PAN BUOY 0900 75 73 190/ 17/ 21 1012.0R BUOY 41025 0950 75 73 220/ 17/ 19 1011.4R 5/ 4 2/ 90/10 CAPE LOOKOUT NC 0900 72 210/ 12/ 16 1011.6S BUOY 41002 0950 74 74 160/ 17/ 21 1015.4S 4/ 4 2/ 40/10 BUOY 41010 0920 78 79 170/ 19/ 21 1014.0R ST AUGUSTINE FL 1000 72 71 220/ 8/ 11 1014.0F $$

USA.gov is the U.S. government's official web portal to all federal, state and local government web resources and services.